[[{"header":{"parameterUnit":"m.s-1","parameterCategory":1,"la1":30.2991,"la2":30.254,"lo1":-89.0895,"lo2":-89.0444,"dy":0.0017,"dx":0.0017,"nx":28,"ny":28,"refTime":"2025-09-08T21:00:00:Z","depth":0,"parameterNumber":2,"parameterNumberName":"U-component_of_WINDS"},"data":[0,0,0,0,0,0,0,0,0,0,0,0,0,0,0,0,0,0,0,0,0,0,0,0,0,0,0,0,0,0,0,0,0,0,0,0,0,0,0,0,0,0,0,0,0,0,0,0,0,0,0,0,0,0,0,0,0,0,-3.9947,-3.9946,0,-3.9867,-3.9866,-3.9865,-3.9697,-3.9693,-3.969,-3.9687,-3.9611,-3.9612,-3.9613,0,0,0,0,0,0,0,0,0,0,0,0,0,-3.9962,-3.9962,-3.9947,-3.9946,-3.9945,-3.9867,-3.9866,-3.9865,-3.9697,-3.9693,-3.9689,-3.9685,-3.9611,-3.9612,-3.9613,0,0,0,0,0,0,0,0,0,0,0,0,0,-3.9926,-3.9962,-3.9947,-3.9852,-3.9842,-3.9867,-3.9866,-3.9865,-3.9698,-3.9693,-3.9688,-3.9683,-3.961,-3.9612,-3.9614,-3.9727,0,0,-3.9619,-3.962,0,0,0,0,0,0,0,0,-3.9928,-3.9926,-3.9867,-3.9858,-3.9848,-3.9786,-3.9843,-3.9819,-3.9699,-3.9753,-3.9686,-3.9681,-3.9674,-3.967,-3.9667,-3.9723,-3.972,-3.9619,-3.962,-3.9621,-3.9621,0,0,0,0,0,0,0,-3.9931,-3.9928,-3.9915,-3.9866,-3.9855,-3.9815,-3.9805,-3.9838,-3.9744,-3.9748,-3.9736,-3.9728,-3.9668,-3.9665,-3.9664,-3.9719,-3.9619,-3.9621,-3.9622,-3.9622,-3.9866,-3.9871,0,0,0,0,0,0,-3.9946,-3.9932,-3.9918,-3.9913,-3.9876,-3.9819,-3.9807,-3.9811,-3.9743,-3.9727,-3.9733,-3.9721,-3.9665,-3.9662,-3.966,-3.9788,-3.9621,-3.9623,-3.9624,-3.9861,-3.9867,-3.9873,0,0,0,0,0,0,-3.9947,-3.9947,-3.9921,-3.9919,-3.9912,-3.9824,-3.9831,-3.9813,-3.9809,-3.9731,-3.9714,-3.9747,-3.9661,-3.9658,-3.9711,-3.9783,-3.9623,-3.9625,-3.9854,-3.9863,-3.987,-4.0046,0,0,0,0,0,0,-3.9949,-3.9948,-3.9988,-3.9921,-3.9913,-3.9972,-3.9835,-3.9815,-3.9812,-3.9796,-3.974,-3.9725,-3.9656,-3.971,-3.9713,-3.9783,-3.9626,-3.9848,-3.9858,-3.9868,-4.0033,-4.0059,-4.0081,0,0,0,0,0,-3.995,-4.0042,-3.9991,-3.9991,-3.9961,-3.9976,-3.9972,-3.9889,-3.9819,-3.986,-3.9809,-3.9727,-3.9775,-3.9717,-3.9719,-3.9791,-3.9843,-3.9855,-3.9867,-4.0023,-4.0054,-4.0081,0,0,0,0,0,0,-4.0122,-4.0032,-3.9974,-4.0047,-4.0021,-3.9948,-3.9996,-3.9925,-3.9919,-3.9904,-3.9804,-3.9793,-3.986,-3.9831,-3.9767,-3.9897,-3.9796,-3.9809,-3.9914,-3.9943,-3.9966,-3.9972,-3.9628,0,0,0,0,0,-4.0169,-4.0186,-4.0107,-4.0179,-4.0169,-4.0086,-4.0089,-4.0027,-3.9997,-3.9985,-3.9938,-3.9914,-3.9923,-3.9931,-3.9936,-4.0029,-4.0015,-4.008,-4.0104,-4.0124,-4.0136,-4.0184,-4.0212,-3.9913,-3.9913,-3.9913,0,0,-4.0265,-4.0218,-4.0235,-4.0213,-4.0185,-4.0207,-4.0077,-4.0106,-4.0123,-3.999,-4.0037,-4.0003,-3.9969,-4.0043,-4.0073,-4.002,-4.0216,-4.0139,-4.0156,-4.0157,-4.02,-4.0228,-4.0253,-3.9922,-3.992,-3.9919,0,0,-4.0451,-4.0417,-4.0473,-4.0448,-4.0407,-4.0352,-4.0366,-4.0304,-4.0276,-4.0321,-4.0222,-4.0242,-4.026,-4.024,-4.0232,-4.0414,-4.0339,-4.0419,-4.0543,-4.0591,-4.0615,-4.0635,-4.0701,-4.0725,-4.0432,-4.0432,-4.0432,0,-4.0577,-4.0604,-4.0512,-4.0547,-4.0541,-4.0421,-4.0479,-4.046,-4.0424,-4.0424,-4.0365,-4.0385,-4.0354,-4.0422,-4.0467,-4.0465,-4.0479,-4.0424,-4.0619,-4.0638,-4.0656,-4.0717,-4.0742,-4.0442,-4.0441,-4.044,-4.0439,0,-4.076,-4.0782,-4.0833,-4.0798,-4.0798,-4.0846,-4.0763,-4.0775,-4.0714,-4.0666,-4.0715,-4.0673,-4.0667,-4.0679,-4.0621,-4.074,-4.0709,-4.0636,-4.0532,-4.0696,-4.0752,-4.0774,-4.0456,-4.0453,-4.045,-4.0447,0,0,-4.1051,-4.0967,-4.0987,-4.0971,-4.0918,-4.0933,-4.0976,-4.0969,-4.0981,-4.0961,-4.0995,-4.1014,-4.0947,-4.0939,-4.0877,-4.092,-4.1068,-4.0842,-4.0839,-4.0885,-4.1197,-4.1252,-4.128,-4.1018,-4.1022,-4.1025,-4.12,0,-4.1225,-4.129,-4.121,-4.1294,-4.1313,-4.12,-4.1238,-4.1211,-4.1168,-4.118,-4.1133,-4.1148,-4.1058,-4.1052,-4.1089,-4.1042,-4.1129,-4.1028,-4.105,-4.1052,-4.1061,-4.1309,-4.1366,-4.1533,-4.1221,-4.1225,-4.1228,0,-4.1436,-4.1424,-4.151,-4.1452,-4.1457,-4.1492,-4.1479,-4.1492,-4.1461,-4.1426,-4.1418,-4.1344,-4.1385,-4.1285,-4.134,-4.1274,-4.1278,-4.1257,-4.1261,-4.126,-4.1149,-4.1314,-4.1585,-4.161,-4.1261,-4.1258,-4.1256,0,-4.164,-4.1646,-4.1697,-4.1687,-4.1622,-4.1649,-4.1623,-4.1586,-4.1588,-4.1578,-4.1578,-4.1575,-4.1573,-4.1573,-4.1501,-4.1435,-4.1566,-4.146,-4.154,-4.1542,-4.1572,-4.1571,-4.1847,-4.1577,-4.1576,-4.1576,-4.1575,0,-4.1842,-4.1898,-4.1788,-4.182,-4.1881,-4.179,-4.1854,-4.1817,-4.1786,-4.181,-4.1714,-4.174,-4.1644,-4.166,-4.1605,-4.166,-4.166,-4.1635,-4.1619,-4.1643,-4.1646,-4.1644,-4.163,-4.1582,-4.1581,-4.158,-4.1578,0,-4.2079,-4.2007,-4.2056,-4.199,-4.1975,-4.2023,-4.1968,-4.1996,-4.1947,-4.198,-4.1982,-4.1907,-4.1921,-4.185,-4.1852,-4.1815,-4.1898,-4.1863,-4.1908,-4.1897,-4.1982,-4.1975,-4.2265,-4.2299,-4.2008,-4.2011,-4.2014,0,-4.2212,-4.2252,-4.2191,-4.2199,-4.2178,-4.2194,-4.2194,-4.2108,-4.2113,-4.2081,-4.2114,-4.212,-4.212,-4.2149,-4.2095,-4.2097,-4.2062,-4.2164,-4.2061,-4.2084,-4.2063,-4.2062,-4.2066,-4.2185,-4.2188,-4.2191,-4.2194,0,-4.2456,-4.2419,-4.2421,-4.2414,-4.2416,-4.2406,-4.239,-4.2403,-4.231,-4.2321,-4.2333,-4.2334,-4.2336,-4.2344,-4.2335,-4.2311,-4.2238,-4.2227,-4.2245,-4.2269,-4.2294,-4.2282,-4.1966,-4.222,-4.2217,-4.2215,-4.2214,-4.2213,-4.2644,-4.2676,-4.2637,-4.2645,-4.2623,-4.2611,-4.2634,-4.2588,-4.2596,-4.2589,-4.2539,-4.2562,-4.2531,-4.2512,-4.2495,-4.2514,-4.2466,-4.2493,-4.2499,-4.2507,-4.2522,-4.2292,-4.2512,-4.2511,-4.251,-4.251,-4.2509,0,-4.2883,-4.2853,-4.2861,-4.284,-4.2847,-4.2776,-4.2755,-4.2766,-4.2787,-4.2763,-4.2765,-4.2781,-4.2789,-4.2737,-4.2739,-4.2764,-4.273,-4.2767,-4.2764,-4.276,-4.2565,-4.2548,-4.2794,-4.2794,-4.2794,-4.2794,-4.2794,-4.2794,-4.3008,-4.3057,-4.3016,-4.3055,-4.3025,-4.3045,-4.3039,-4.3028,-4.3009,-4.303,-4.3035,-4.3001,-4.2967,-4.2966,-4.2971,-4.2955,-4.2961,-4.3009,-4.2983,-4.2801,-4.2774,-4.2747,-4.2731,-4.3011,-4.3011,-4.3176,-4.3177,-4.3178]},{"header":{"parameterUnit":"m.s-1","parameterCategory":1,"la1":30.2991,"la2":30.254,"lo1":-89.0895,"lo2":-89.0444,"dy":0.0017,"dx":0.0017,"nx":28,"ny":28,"refTime":"2025-09-08T21:00:00:Z","depth":0,"parameterNumber":3,"parameterNumberName":"V-component_of_WINDS"},"data":[0,0,0,0,0,0,0,0,0,0,0,0,0,0,0,0,0,0,0,0,0,0,0,0,0,0,0,0,0,0,0,0,0,0,0,0,0,0,0,0,0,0,0,0,0,0,0,0,0,0,0,0,0,0,0,0,0,0,0.7501,0.7502,0,0.7525,0.7525,0.7526,0.7596,0.7597,0.7599,0.76,0.7621,0.762,0.7619,0,0,0,0,0,0,0,0,0,0,0,0,0,0.7513,0.7513,0.7501,0.7502,0.7502,0.7525,0.7525,0.7526,0.7596,0.7597,0.7599,0.7601,0.7621,0.762,0.7619,0,0,0,0,0,0,0,0,0,0,0,0,0,0.7519,0.7512,0.7501,0.754,0.7543,0.7525,0.7525,0.7526,0.7595,0.7597,0.76,0.7602,0.7621,0.762,0.7619,0.7564,0,0,0.7615,0.7614,0,0,0,0,0,0,0,0,0.7519,0.7519,0.7534,0.7537,0.7541,0.756,0.7537,0.7538,0.7595,0.7575,0.76,0.7603,0.7598,0.7599,0.7598,0.7565,0.7566,0.7614,0.7614,0.7613,0.7613,0,0,0,0,0,0,0,0.7519,0.7518,0.7511,0.7534,0.7538,0.7555,0.7558,0.7538,0.7573,0.7577,0.7582,0.7584,0.7601,0.7599,0.7599,0.7566,0.7614,0.7613,0.7612,0.7612,0.7488,0.7485,0,0,0,0,0,0,0.7513,0.7517,0.751,0.7511,0.7536,0.7553,0.7556,0.7551,0.7574,0.758,0.7582,0.7588,0.7601,0.7601,0.76,0.7537,0.7613,0.7612,0.7611,0.749,0.7487,0.7485,0,0,0,0,0,0,0.7513,0.7512,0.7509,0.7516,0.7517,0.755,0.7544,0.7551,0.755,0.7578,0.7584,0.7575,0.7602,0.7602,0.7572,0.7538,0.7611,0.761,0.7493,0.7489,0.7486,0.7409,0,0,0,0,0,0,0.7513,0.7511,0.7492,0.7515,0.7516,0.7482,0.7542,0.755,0.7547,0.7554,0.7572,0.7577,0.7604,0.7574,0.7571,0.7538,0.7609,0.7496,0.7491,0.7487,0.7415,0.7403,0.7393,0,0,0,0,0,0.7513,0.7468,0.749,0.7489,0.7492,0.748,0.748,0.7513,0.7544,0.7524,0.7542,0.7577,0.7543,0.757,0.7568,0.7533,0.7499,0.7493,0.7487,0.742,0.7405,0.7393,0,0,0,0,0,0,0.7439,0.7472,0.7497,0.7458,0.7466,0.7491,0.7467,0.7497,0.7495,0.7501,0.7541,0.7544,0.7509,0.7519,0.7549,0.7481,0.7526,0.752,0.7476,0.7463,0.7452,0.7449,0.7608,0,0,0,0,0,0.7418,0.7406,0.7436,0.7399,0.7401,0.7433,0.7429,0.7454,0.7463,0.7466,0.7482,0.7488,0.7479,0.7471,0.7465,0.7417,0.7421,0.7392,0.7381,0.7372,0.7366,0.734,0.7327,0.7466,0.7466,0.7466,0,0,0.7375,0.7392,0.7381,0.7384,0.7393,0.7378,0.7435,0.7418,0.7407,0.7463,0.7435,0.7447,0.7457,0.7418,0.7401,0.7425,0.7329,0.7365,0.7358,0.7356,0.7333,0.732,0.7308,0.7462,0.7463,0.7464,0,0,0.7288,0.73,0.727,0.7278,0.7291,0.7313,0.7305,0.7327,0.7337,0.7311,0.7353,0.734,0.7323,0.7328,0.7328,0.7243,0.7274,0.724,0.7183,0.7157,0.7146,0.7137,0.7105,0.7093,0.7234,0.7233,0.7233,0,0.7232,0.7213,0.7251,0.723,0.723,0.7281,0.7251,0.7256,0.7265,0.7263,0.729,0.727,0.728,0.7242,0.7221,0.722,0.7212,0.7237,0.7145,0.7136,0.7128,0.7098,0.7086,0.7229,0.723,0.723,0.723,0,0.7142,0.7128,0.7103,0.7111,0.7108,0.7082,0.7116,0.7108,0.7133,0.7151,0.7123,0.7138,0.7134,0.7127,0.7151,0.7092,0.7106,0.7138,0.7184,0.7109,0.7082,0.7071,0.7223,0.7224,0.7226,0.7227,0,0,0.7008,0.7039,0.7028,0.7033,0.7051,0.704,0.7016,0.7014,0.7006,0.7011,0.6991,0.6976,0.7006,0.7006,0.7031,0.7009,0.6939,0.7044,0.7045,0.7022,0.6873,0.6847,0.6834,0.6961,0.6959,0.6957,0.6872,0,0.6924,0.6887,0.6921,0.6876,0.6862,0.6911,0.6891,0.6899,0.6915,0.6906,0.6924,0.6912,0.6954,0.6954,0.6934,0.6952,0.6909,0.6959,0.694,0.6939,0.6935,0.682,0.6793,0.6711,0.6862,0.686,0.6858,0,0.6822,0.6823,0.6777,0.6798,0.6793,0.6774,0.6774,0.6765,0.6775,0.6789,0.6789,0.682,0.6797,0.6844,0.6812,0.6844,0.6839,0.6846,0.6844,0.6842,0.6893,0.6813,0.6686,0.6673,0.6842,0.6843,0.6845,0,0.6726,0.6716,0.6687,0.669,0.6714,0.6699,0.6708,0.672,0.6716,0.6717,0.6714,0.6711,0.6709,0.6705,0.6734,0.6766,0.6698,0.6747,0.6707,0.6706,0.6689,0.6689,0.6558,0.6688,0.6688,0.6689,0.6689,0,0.6628,0.6598,0.6644,0.6626,0.6593,0.6632,0.6598,0.6612,0.6623,0.6607,0.665,0.6634,0.6675,0.6663,0.6685,0.6654,0.6653,0.6662,0.6668,0.6657,0.6656,0.6653,0.6659,0.6685,0.6686,0.6687,0.6687,0,0.6515,0.6545,0.6517,0.6542,0.6548,0.6522,0.6543,0.6527,0.6547,0.6527,0.6524,0.6555,0.6543,0.6573,0.6565,0.658,0.6535,0.6551,0.6532,0.6536,0.6493,0.6496,0.6354,0.6337,0.648,0.6478,0.6477,0,0.645,0.6428,0.6451,0.6444,0.6451,0.644,0.6437,0.6474,0.6469,0.6478,0.646,0.6452,0.6448,0.6426,0.6447,0.6441,0.6456,0.6407,0.6455,0.6445,0.6453,0.6453,0.6451,0.6396,0.6394,0.6393,0.6392,0,0.633,0.6346,0.6341,0.634,0.6335,0.6336,0.634,0.6331,0.6371,0.6363,0.6352,0.6349,0.6341,0.6332,0.6331,0.6339,0.6371,0.6377,0.6367,0.6354,0.6343,0.6347,0.6502,0.6379,0.638,0.6381,0.6382,0.6382,0.6238,0.622,0.6234,0.6225,0.6233,0.6235,0.6221,0.6239,0.6231,0.6229,0.6252,0.6235,0.6245,0.6247,0.6252,0.6239,0.6261,0.6247,0.6243,0.6239,0.6231,0.6347,0.6239,0.624,0.624,0.624,0.6241,0,0.6119,0.613,0.6123,0.6127,0.612,0.6153,0.6159,0.6151,0.6136,0.6144,0.6139,0.6125,0.6117,0.6137,0.6132,0.6117,0.6131,0.6114,0.6114,0.6115,0.6212,0.6221,0.6102,0.6102,0.6102,0.6102,0.6102,0.6102,0.6056,0.6028,0.6045,0.602,0.6032,0.6017,0.6017,0.6019,0.6025,0.6009,0.6002,0.6016,0.6028,0.6024,0.6017,0.6023,0.6018,0.5995,0.6006,0.6095,0.6109,0.6122,0.613,0.5994,0.5994,0.591,0.5909,0.5909]}]]